User: anonymous   Login
Location: Vale
(35.4830°N, 81.3830°W)
Time: 21:47:05
(UTC-04:00)
Language:

SAR-Lupe-1 - Orbit

View from above orbital plane
View from above orbital plane
View from above satellite
View from above satellite

Ground track
Ground track

The orbit data is extracted from the following two-line orbital elements,

1 29658U 06060A   18167.94081823 0.00000000  00000-0  00000-0 0    03
2 29658  98.1018 256.5148 0002000 253.8928 106.1070 15.27646093    07
Epoch (UTC): 16 June 2018 22:34:46
Eccentricity: 0.0002000
inclination: 98.1018°
perigee height: 481 km
apogee height: 484 km
right ascension of ascending node: 256.5148°
argument of perigee: 253.8928°
revolutions per day: 15.27646093
mean anomaly at epoch: 106.1070°
orbit number at epoch: 0

The dashed part of the orbit path shows where the satellite is in the earth's shadow,  

DLR